{"data":{"norad_id":62556,"epoch":"2026-09-21T16:23:35.019744Z","epoch_age_seconds":69126,"freshness":"FRESH","line1":"1 62556U 25006C   26264.68304421  .00194999  00000+0  14847-2 0  9991","line2":"2 62556  43.0000  38.8211 0001378 276.8144  83.2567 15.70889118 97428","mean_motion":15.70889118,"eccentricity":0.0001378,"inclination_deg":43,"raan_deg":38.8211,"arg_perigee_deg":276.8144,"mean_anomaly_deg":83.2567,"bstar":0.0014847,"rev_number":9742,"period_min":91.667832153128,"perigee_km":355.42666383694,"apogee_km":357.28268974306,"semimajor_km":6734.49167679,"source":"CELESTRAK","updated_at":"2026-09-22T09:00:49.626284Z"}}